Location: Windsor
(43.2292°N, 89.3015°W)
Time: 14:41:45
(UTC+00:00)

MOZHAYETS 4 - Pass Details

Date: 05 July 2022
Orbit: 660 x 678 km, 98.2° (Epoch: 19 August)

Event Time Altitude Azimuth Distance (km) Brightness Sun altitude
Exits shadow 08:06:14 17° 155° (SSE) 1,671 9.4 -18.1°
Maximum altitude 08:09:43 70° 75° (ENE) 720 8.0 -17.7°
Drops below altitude 10° 08:14:18 10° 352° (N) 2,109 11.0 -17.3°
Sets 08:16:32 0° 350° (N) 3,024 11.8 -17.1°
